Precipitable_Water
1.17 1.10 1.02 1.04 1.06 1.11 1.21 1.21 1.22 1.10 1.15 1.15 1.16 1.15 0.98 0.82 0.70 0.63 0.58 0.57 0.58 0.59 0.58 0.52 0.52 0.49 0.51 0.51 0.49 0.43 0.44 0.45 0.47 0.46 0.42 0.41 0.40 0.39 0.39 0.39 0.40 0.42 0.44 0.46 0.46 0.45 0.45 0.44 0.42 0.40 0.38 0.36 0.35 0.35 0.35 0.36 0.37 0.37 0.37 0.37 0.37 0.37 0.37 0.37 0.37 0.37 0.37 0.36 0.35 0.35 0.35 0.35 0.35 0.36
1.01 1.02 1.05 1.13 1.06 1.10 1.16 1.22 1.16 1.18 1.14 1.11 1.12 1.16 1.06 0.95 0.82 0.72 0.61 0.60 0.62 0.56 0.55 0.51 0.43 0.47 0.51 0.53 0.47 0.48 0.47 0.47 0.53 0.51 0.45 0.44 0.42 0.39 0.40 0.41 0.44 0.46 0.48 0.49 0.49 0.48 0.48 0.48 0.48 0.46 0.43 0.41 0.38 0.37 0.36 0.37 0.37 0.38 0.38 0.38 0.38 0.38 0.38 0.37 0.38 0.38 0.37 0.36 0.36 0.35 0.35 0.36 0.36 0.37
0.96 0.93 0.95 1.00 1.03 1.13 1.21 1.17 1.18 1.13 1.14 1.15 1.22 1.13 1.07 0.98 0.92 0.82 0.70 0.61 0.60 0.57 0.49 0.47 0.43 0.46 0.51 0.50 0.49 0.50 0.50 0.51 0.55 0.55 0.50 0.49 0.44 0.43 0.45 0.46 0.48 0.50 0.51 0.51 0.51 0.50 0.50 0.51 0.51 0.51 0.51 0.50 0.47 0.44 0.41 0.39 0.38 0.39 0.39 0.38 0.39 0.39 0.39 0.38 0.39 0.40 0.39 0.39 0.38 0.36 0.35 0.35 0.36 0.37
0.99 0.92 0.90 0.95 0.99 1.12 1.13 1.08 1.09 1.09 1.13 1.13 1.07 1.07 1.01 0.98 0.94 0.87 0.75 0.61 0.54 0.53 0.49 0.45 0.43 0.48 0.50 0.52 0.51 0.50 0.49 0.50 0.53 0.57 0.56 0.55 0.47 0.49 0.52 0.51 0.52 0.51 0.53 0.52 0.53 0.53 0.55 0.54 0.55 0.57 0.57 0.56 0.54 0.53 0.50 0.46 0.42 0.42 0.40 0.40 0.40 0.40 0.39 0.39 0.39 0.39 0.39 0.39 0.39 0.39 0.38 0.37 0.37 0.36
0.98 1.01 0.92 0.90 0.93 1.01 1.00 1.05 1.08 1.07 1.08 1.06 1.06 1.01 0.98 0.97 0.89 0.82 0.71 0.60 0.54 0.50 0.53 0.46 0.45 0.50 0.52 0.49 0.52 0.50 0.50 0.50 0.53 0.59 0.60 0.58 0.54 0.54 0.56 0.56 0.54 0.54 0.55 0.56 0.56 0.58 0.59 0.59 0.60 0.61 0.60 0.59 0.58 0.57 0.56 0.54 0.50 0.46 0.41 0.40 0.40 0.39 0.40 0.40 0.39 0.38 0.38 0.38 0.39 0.39 0.39 0.38 0.38 0.38
0.95 1.00 0.97 0.96 0.93 0.98 0.99 1.04 1.02 1.03 1.03 1.06 0.99 1.03 0.97 0.86 0.77 0.80 0.66 0.61 0.55 0.48 0.51 0.49 0.49 0.50 0.54 0.49 0.54 0.55 0.53 0.53 0.55 0.57 0.62 0.61 0.60 0.59 0.63 0.64 0.60 0.60 0.60 0.61 0.62 0.62 0.63 0.64 0.64 0.64 0.64 0.63 0.62 0.61 0.60 0.59 0.57 0.54 0.48 0.43 0.41 0.42 0.42 0.42 0.41 0.40 0.40 0.40 0.40 0.40 0.41 0.40 0.40 0.40
0.90 0.99 1.00 0.98 0.98 0.97 0.98 1.00 1.00 1.07 1.05 1.03 1.07 1.00 0.92 0.79 0.71 0.69 0.66 0.61 0.58 0.51 0.50 0.53 0.46 0.49 0.52 0.51 0.52 0.57 0.61 0.61 0.60 0.57 0.63 0.67 0.67 0.66 0.70 0.73 0.71 0.69 0.65 0.64 0.64 0.65 0.67 0.67 0.68 0.68 0.68 0.68 0.68 0.68 0.67 0.66 0.64 0.62 0.58 0.52 0.46 0.43 0.42 0.41 0.40 0.40 0.40 0.41 0.41 0.41 0.41 0.41 0.41 0.41
0.83 0.89 1.00 1.00 0.98 0.98 0.98 0.95 0.95 0.98 1.02 1.03 1.02 0.95 0.86 0.76 0.68 0.72 0.68 0.65 0.67 0.54 0.51 0.53 0.49 0.50 0.53 0.54 0.56 0.59 0.64 0.66 0.64 0.63 0.65 0.72 0.72 0.70 0.73 0.72 0.71 0.70 0.69 0.68 0.67 0.68 0.69 0.70 0.70 0.71 0.72 0.72 0.72 0.71 0.71 0.70 0.68 0.65 0.62 0.57 0.51 0.46 0.44 0.43 0.43 0.42 0.42 0.41 0.41 0.41 0.40 0.39 0.40 0.41
0.78 0.85 0.98 1.02 1.02 1.00 0.97 0.92 0.89 0.97 1.00 0.97 0.93 0.91 0.86 0.79 0.72 0.73 0.70 0.64 0.65 0.56 0.53 0.52 0.57 0.58 0.56 0.58 0.61 0.60 0.61 0.66 0.69 0.69 0.67 0.67 0.69 0.69 0.70 0.71 0.73 0.73 0.72 0.72 0.71 0.71 0.71 0.72 0.72 0.72 0.72 0.72 0.70 0.69 0.68 0.68 0.68 0.67 0.65 0.61 0.56 0.51 0.47 0.45 0.45 0.44 0.43 0.43 0.42 0.42 0.41 0.41 0.41 0.42
0.76 0.82 0.95 1.06 1.03 1.00 0.95 0.92 0.92 0.99 0.98 0.92 0.88 0.86 0.83 0.77 0.74 0.65 0.60 0.60 0.59 0.61 0.55 0.52 0.53 0.56 0.56 0.58 0.61 0.64 0.64 0.65 0.66 0.67 0.67 0.67 0.68 0.68 0.69 0.71 0.73 0.74 0.74 0.74 0.74 0.73 0.73 0.72 0.71 0.71 0.70 0.69 0.68 0.68 0.68 0.68 0.68 0.67 0.66 0.65 0.62 0.57 0.50 0.45 0.44 0.43 0.43 0.43 0.42 0.42 0.41 0.41 0.41 0.41
0.74 0.81 0.89 1.06 1.09 1.07 1.03 0.96 0.97 0.96 0.95 0.91 0.87 0.84 0.80 0.74 0.75 0.67 0.56 0.57 0.60 0.59 0.59 0.63 0.59 0.58 0.59 0.61 0.60 0.66 0.67 0.67 0.67 0.65 0.63 0.61 0.65 0.68 0.69 0.70 0.72 0.74 0.75 0.76 0.75 0.73 0.72 0.73 0.72 0.72 0.71 0.70 0.69 0.69 0.68 0.67 0.67 0.67 0.66 0.65 0.64 0.61 0.57 0.51 0.45 0.44 0.44 0.44 0.44 0.43 0.42 0.41 0.41 0.42
0.75 0.78 0.86 1.08 1.09 1.18 1.10 0.99 0.99 0.96 0.93 0.91 0.88 0.84 0.77 0.75 0.75 0.69 0.65 0.64 0.64 0.61 0.61 0.63 0.67 0.65 0.63 0.64 0.67 0.69 0.66 0.62 0.63 0.65 0.64 0.62 0.63 0.65 0.68 0.70 0.71 0.72 0.72 0.73 0.74 0.75 0.75 0.75 0.75 0.73 0.72 0.70 0.69 0.69 0.67 0.66 0.67 0.67 0.67 0.66 0.65 0.64 0.62 0.58 0.52 0.46 0.44 0.45 0.45 0.44 0.43 0.43 0.43 0.43
0.76 0.77 0.83 0.96 1.13 1.15 1.02 1.02 1.03 1.04 1.00 0.95 0.87 0.86 0.84 0.78 0.78 0.73 0.70 0.72 0.71 0.68 0.67 0.68 0.71 0.72 0.70 0.70 0.69 0.67 0.66 0.62 0.61 0.67 0.67 0.64 0.67 0.69 0.69 0.72 0.76 0.76 0.71 0.73 0.75 0.74 0.75 0.73 0.72 0.71 0.69 0.69 0.68 0.69 0.68 0.68 0.69 0.69 0.68 0.68 0.67 0.66 0.65 0.64 0.60 0.53 0.46 0.45 0.46 0.46 0.45 0.45 0.45 0.45
0.75 0.78 0.83 0.83 0.87 0.92 1.05 1.05 1.09 1.01 0.95 0.93 0.90 0.89 0.85 0.82 0.79 0.79 0.76 0.75 0.74 0.71 0.69 0.70 0.71 0.70 0.72 0.74 0.72 0.71 0.72 0.71 0.70 0.68 0.68 0.65 0.68 0.69 0.68 0.70 0.74 0.82 0.79 0.74 0.72 0.73 0.74 0.71 0.69 0.69 0.67 0.71 0.72 0.72 0.72 0.74 0.74 0.73 0.72 0.72 0.70 0.69 0.67 0.65 0.64 0.60 0.52 0.48 0.48 0.47 0.47 0.46 0.46 0.47
0.72 0.76 0.81 0.76 0.76 0.79 0.79 0.83 0.85 0.84 0.85 0.82 0.80 0.80 0.82 0.83 0.84 0.81 0.76 0.75 0.77 0.73 0.69 0.72 0.72 0.71 0.71 0.73 0.76 0.76 0.76 0.76 0.72 0.71 0.70 0.68 0.69 0.67 0.64 0.62 0.71 0.81 0.80 0.76 0.73 0.74 0.76 0.73 0.68 0.68 0.69 0.70 0.73 0.73 0.76 0.79 0.79 0.78 0.77 0.75 0.72 0.69 0.68 0.67 0.65 0.63 0.57 0.51 0.50 0.49 0.48 0.48 0.48 0.48
0.68 0.70 0.78 0.79 0.79 0.82 0.83 0.77 0.71 0.69 0.67 0.66 0.67 0.68 0.70 0.71 0.75 0.78 0.79 0.78 0.74 0.72 0.71 0.69 0.70 0.72 0.70 0.72 0.75 0.75 0.74 0.74 0.74 0.74 0.73 0.70 0.68 0.67 0.67 0.67 0.65 0.76 0.83 0.77 0.73 0.72 0.79 0.75 0.71 0.70 0.73 0.74 0.73 0.76 0.79 0.79 0.79 0.80 0.79 0.77 0.74 0.69 0.67 0.66 0.65 0.63 0.58 0.52 0.50 0.49 0.48 0.48 0.48 0.48
0.74 0.74 0.73 0.73 0.79 0.86 0.84 0.79 0.78 0.75 0.66 0.63 0.62 0.63 0.65 0.67 0.67 0.68 0.69 0.72 0.75 0.76 0.73 0.72 0.70 0.71 0.71 0.70 0.72 0.76 0.76 0.77 0.74 0.75 0.74 0.75 0.73 0.69 0.66 0.66 0.67 0.72 0.80 0.77 0.73 0.69 0.75 0.76 0.71 0.70 0.75 0.77 0.76 0.73 0.73 0.73 0.74 0.75 0.74 0.73 0.70 0.67 0.66 0.66 0.65 0.63 0.59 0.53 0.50 0.49 0.48 0.47 0.47 0.46
0.81 0.83 0.82 0.78 0.75 0.81 0.84 0.78 0.77 0.78 0.82 0.78 0.70 0.65 0.65 0.66 0.66 0.65 0.65 0.65 0.67 0.71 0.73 0.73 0.72 0.76 0.74 0.71 0.73 0.76 0.75 0.70 0.68 0.69 0.67 0.69 0.69 0.70 0.69 0.73 0.72 0.77 0.81 0.72 0.71 0.68 0.71 0.75 0.70 0.65 0.69 0.74 0.73 0.71 0.70 0.70 0.71 0.71 0.70 0.67 0.63 0.61 0.61 0.61 0.61 0.59 0.57 0.53 0.50 0.49 0.48 0.47 0.46 0.47
0.74 0.76 0.75 0.75 0.76 0.78 0.81 0.85 0.83 0.81 0.79 0.80 0.81 0.81 0.76 0.71 0.70 0.71 0.68 0.66 0.66 0.66 0.67 0.68 0.68 0.69 0.76 0.78 0.79 0.80 0.80 0.75 0.72 0.72 0.72 0.71 0.68 0.67 0.71 0.80 0.81 0.79 0.81 0.79 0.74 0.62 0.69 0.75 0.69 0.68 0.69 0.71 0.72 0.73 0.69 0.71 0.72 0.71 0.68 0.66 0.63 0.60 0.58 0.58 0.56 0.54 0.52 0.50 0.48 0.47 0.47 0.46 0.47 0.49
0.83 0.80 0.77 0.74 0.72 0.74 0.82 0.78 0.76 0.74 0.74 0.73 0.74 0.75 0.75 0.76 0.78 0.79 0.81 0.83 0.80 0.75 0.72 0.71 0.70 0.71 0.78 0.77 0.79 0.81 0.81 0.81 0.79 0.81 0.79 0.77 0.74 0.70 0.67 0.68 0.79 0.77 0.83 0.83 0.77 0.69 0.70 0.79 0.71 0.70 0.72 0.70 0.68 0.70 0.68 0.69 0.70 0.68 0.66 0.63 0.61 0.59 0.59 0.58 0.55 0.52 0.50 0.48 0.47 0.47 0.47 0.47 0.48 0.50
0.96 0.97 0.96 0.92 0.95 1.00 0.93 0.89 0.85 0.81 0.75 0.71 0.70 0.70 0.71 0.74 0.77 0.78 0.84 0.85 0.85 0.82 0.80 0.77 0.78 0.79 0.78 0.78 0.76 0.75 0.76 0.77 0.78 0.77 0.76 0.73 0.74 0.70 0.68 0.74 0.75 0.77 0.83 0.83 0.82 0.77 0.72 0.76 0.74 0.68 0.70 0.68 0.65 0.65 0.64 0.65 0.64 0.63 0.61 0.59 0.59 0.60 0.59 0.56 0.53 0.51 0.49 0.48 0.48 0.49 0.50 0.51 0.52 0.53
0.97 0.96 0.91 0.87 0.90 0.89 0.88 0.89 0.91 0.90 0.89 0.84 0.82 0.80 0.77 0.76 0.77 0.79 0.84 0.91 0.95 0.93 0.88 0.85 0.81 0.77 0.76 0.76 0.76 0.75 0.76 0.76 0.76 0.73 0.69 0.76 0.79 0.77 0.79 0.74 0.76 0.78 0.84 0.84 0.87 0.78 0.71 0.78 0.76 0.69 0.71 0.69 0.66 0.67 0.67 0.67 0.65 0.63 0.61 0.61 0.63 0.61 0.59 0.57 0.55 0.53 0.53 0.53 0.54 0.55 0.55 0.55 0.54 0.53
0.92 0.98 0.93 0.89 0.87 0.86 0.85 0.86 0.85 0.84 0.83 0.82 0.82 0.84 0.81 0.79 0.78 0.85 0.89 0.84 0.85 0.93 0.99 0.99 0.98 0.91 0.87 0.85 0.82 0.81 0.81 0.83 0.86 0.87 0.84 0.85 0.83 0.78 0.77 0.77 0.77 0.71 0.74 0.84 0.88 0.78 0.76 0.76 0.78 0.72 0.67 0.62 0.65 0.67 0.66 0.64 0.63 0.62 0.63 0.64 0.64 0.63 0.61 0.59 0.57 0.56 0.57 0.57 0.57 0.57 0.57 0.56 0.55 0.53
0.76 0.79 0.82 0.81 0.79 0.79 0.78 0.78 0.78 0.78 0.79 0.78 0.80 0.81 0.80 0.81 0.83 0.90 0.89 0.91 0.95 0.95 0.88 0.85 0.99 1.03 1.03 0.96 0.94 0.93 0.92 0.90 0.90 0.90 0.89 0.88 0.85 0.80 0.78 0.78 0.77 0.73 0.74 0.85 0.87 0.80 0.80 0.79 0.74 0.73 0.66 0.58 0.55 0.59 0.60 0.60 0.61 0.62 0.64 0.65 0.62 0.61 0.59 0.56 0.54 0.55 0.56 0.56 0.58 0.58 0.58 0.56 0.55 0.53
0.67 0.68 0.77 0.80 0.80 0.77 0.75 0.72 0.70 0.69 0.67 0.66 0.66 0.67 0.67 0.72 0.77 0.82 0.80 0.79 0.80 0.81 0.86 0.88 0.88 0.85 0.89 0.91 0.89 0.85 0.82 0.83 0.83 0.83 0.83 0.84 0.84 0.82 0.81 0.80 0.80 0.82 0.83 0.86 0.88 0.83 0.75 0.74 0.69 0.68 0.64 0.61 0.58 0.56 0.59 0.60 0.61 0.61 0.62 0.60 0.57 0.59 0.56 0.54 0.55 0.57 0.58 0.58 0.58 0.58 0.57 0.57 0.55 0.53
0.63 0.65 0.70 0.72 0.74 0.74 0.73 0.71 0.69 0.67 0.65 0.64 0.63 0.64 0.66 0.66 0.67 0.68 0.70 0.74 0.78 0.83 0.85 0.85 0.88 0.87 0.86 0.92 0.95 0.92 0.87 0.85 0.86 0.83 0.83 0.85 0.88 0.90 0.92 0.86 0.81 0.77 0.76 0.82 0.82 0.77 0.73 0.68 0.67 0.64 0.60 0.57 0.57 0.57 0.54 0.54 0.56 0.58 0.58 0.58 0.58 0.57 0.56 0.55 0.54 0.55 0.58 0.59 0.58 0.57 0.57 0.56 0.54 0.53
0.60 0.63 0.66 0.68 0.67 0.65 0.63 0.61 0.60 0.58 0.55 0.53 0.53 0.54 0.55 0.57 0.59 0.61 0.62 0.64 0.64 0.66 0.71 0.76 0.79 0.81 0.82 0.83 0.83 0.90 0.90 0.97 0.96 0.93 0.89 0.90 0.91 0.92 0.90 0.90 0.90 0.84 0.82 0.81 0.80 0.78 0.73 0.68 0.68 0.63 0.59 0.59 0.55 0.54 0.52 0.50 0.51 0.56 0.54 0.57 0.57 0.57 0.58 0.56 0.52 0.52 0.56 0.57 0.57 0.57 0.56 0.55 0.54 0.53
0.52 0.56 0.56 0.54 0.54 0.53 0.51 0.49 0.47 0.45 0.44 0.45 0.45 0.45 0.47 0.48 0.49 0.50 0.50 0.50 0.50 0.50 0.50 0.52 0.57 0.66 0.76 0.79 0.78 0.78 0.81 0.88 0.90 0.89 0.87 0.86 0.86 0.86 0.87 0.86 0.85 0.85 0.83 0.80 0.77 0.76 0.72 0.68 0.66 0.68 0.64 0.56 0.52 0.49 0.48 0.53 0.52 0.51 0.52 0.55 0.53 0.56 0.56 0.53 0.52 0.55 0.56 0.56 0.55 0.56 0.54 0.52 0.53 0.52
0.49 0.47 0.46 0.44 0.41 0.39 0.37 0.36 0.35 0.35 0.35 0.36 0.38 0.38 0.38 0.39 0.40 0.40 0.40 0.40 0.40 0.40 0.39 0.40 0.42 0.44 0.48 0.54 0.60 0.71 0.77 0.85 0.86 0.86 0.87 0.89 0.86 0.84 0.83 0.81 0.80 0.81 0.78 0.75 0.72 0.70 0.67 0.65 0.61 0.63 0.60 0.58 0.54 0.53 0.51 0.49 0.50 0.50 0.50 0.48 0.49 0.53 0.55 0.55 0.54 0.53 0.54 0.55 0.54 0.52 0.50 0.49 0.48 0.48
0.45 0.43 0.41 0.40 0.37 0.36 0.36 0.35 0.35 0.35 0.36 0.36 0.36 0.35 0.33 0.34 0.35 0.37 0.39 0.41 0.39 0.38 0.38 0.40 0.40 0.43 0.48 0.50 0.55 0.62 0.67 0.72 0.74 0.76 0.75 0.75 0.76 0.78 0.78 0.76 0.73 0.75 0.76 0.76 0.73 0.69 0.67 0.65 0.63 0.61 0.59 0.57 0.55 0.51 0.49 0.46 0.44 0.46 0.47 0.47 0.50 0.54 0.54 0.51 0.50 0.53 0.55 0.53 0.52 0.50 0.49 0.48 0.47 0.46
0.44 0.43 0.40 0.37 0.35 0.35 0.36 0.36 0.36 0.36 0.37 0.37 0.39 0.40 0.43 0.45 0.46 0.48 0.48 0.46 0.43 0.42 0.42 0.42 0.43 0.45 0.48 0.52 0.54 0.52 0.54 0.57 0.63 0.69 0.67 0.66 0.66 0.69 0.69 0.64 0.61 0.65 0.70 0.73 0.73 0.71 0.68 0.66 0.65 0.62 0.56 0.53 0.51 0.48 0.47 0.47 0.44 0.45 0.48 0.51 0.50 0.44 0.50 0.53 0.55 0.54 0.53 0.51 0.49 0.47 0.47 0.47 0.46 0.46
0.39 0.36 0.36 0.37 0.39 0.39 0.39 0.40 0.41 0.42 0.43 0.44 0.46 0.45 0.45 0.45 0.46 0.46 0.48 0.46 0.45 0.43 0.42 0.43 0.45 0.46 0.47 0.45 0.49 0.55 0.56 0.55 0.59 0.62 0.61 0.61 0.59 0.61 0.63 0.61 0.60 0.63 0.65 0.69 0.70 0.71 0.70 0.67 0.62 0.60 0.58 0.54 0.49 0.48 0.47 0.45 0.43 0.45 0.47 0.49 0.50 0.49 0.51 0.50 0.50 0.50 0.49 0.48 0.45 0.43 0.45 0.45 0.44 0.44
0.36 0.35 0.35 0.35 0.35 0.36 0.36 0.36 0.37 0.37 0.37 0.37 0.38 0.39 0.40 0.40 0.41 0.43 0.43 0.43 0.45 0.47 0.47 0.46 0.45 0.44 0.45 0.47 0.48 0.49 0.50 0.51 0.54 0.56 0.55 0.57 0.54 0.53 0.54 0.50 0.48 0.48 0.49 0.53 0.57 0.58 0.60 0.61 0.61 0.59 0.56 0.50 0.47 0.46 0.44 0.42 0.46 0.49 0.46 0.47 0.47 0.47 0.49 0.51 0.49 0.47 0.47 0.45 0.43 0.43 0.42 0.44 0.44 0.43
0.32 0.32 0.32 0.34 0.35 0.34 0.34 0.33 0.33 0.33 0.34 0.34 0.34 0.35 0.36 0.36 0.37 0.39 0.41 0.42 0.42 0.44 0.43 0.44 0.44 0.45 0.47 0.46 0.47 0.49 0.52 0.54 0.58 0.60 0.54 0.51 0.51 0.50 0.49 0.46 0.46 0.47 0.47 0.47 0.50 0.52 0.53 0.55 0.52 0.49 0.46 0.45 0.45 0.45 0.45 0.44 0.43 0.45 0.47 0.48 0.48 0.47 0.49 0.49 0.48 0.47 0.46 0.44 0.42 0.40 0.40 0.41 0.43 0.44
0.32 0.33 0.34 0.33 0.35 0.34 0.34 0.34 0.34 0.35 0.35 0.35 0.36 0.36 0.38 0.39 0.40 0.40 0.41 0.42 0.44 0.43 0.44 0.45 0.47 0.48 0.48 0.47 0.49 0.49 0.50 0.52 0.54 0.53 0.56 0.56 0.52 0.53 0.52 0.53 0.53 0.54 0.53 0.50 0.48 0.47 0.46 0.44 0.43 0.41 0.41 0.42 0.42 0.45 0.50 0.48 0.44 0.45 0.47 0.47 0.48 0.47 0.46 0.47 0.47 0.46 0.46 0.45 0.45 0.41 0.39 0.39 0.40 0.42
0.33 0.34 0.35 0.33 0.34 0.34 0.35 0.35 0.36 0.36 0.36 0.36 0.37 0.38 0.37 0.37 0.39 0.40 0.41 0.45 0.47 0.48 0.46 0.45 0.46 0.48 0.49 0.50 0.50 0.49 0.49 0.52 0.53 0.51 0.50 0.50 0.50 0.49 0.48 0.46 0.45 0.45 0.45 0.44 0.43 0.46 0.47 0.46 0.44 0.41 0.38 0.39 0.40 0.38 0.44 0.54 0.54 0.50 0.46 0.45 0.48 0.47 0.47 0.47 0.48 0.48 0.47 0.45 0.44 0.41 0.37 0.36 0.37 0.40
0.32 0.34 0.34 0.35 0.35 0.36 0.35 0.36 0.37 0.37 0.38 0.39 0.39 0.40 0.39 0.39 0.41 0.43 0.46 0.50 0.50 0.51 0.51 0.49 0.47 0.47 0.47 0.48 0.50 0.51 0.50 0.50 0.49 0.48 0.48 0.49 0.48 0.47 0.44 0.44 0.44 0.45 0.47 0.50 0.51 0.50 0.49 0.46 0.45 0.43 0.40 0.38 0.37 0.37 0.42 0.50 0.51 0.54 0.52 0.47 0.46 0.47 0.47 0.48 0.48 0.46 0.45 0.43 0.41 0.40 0.38 0.37 0.37 0.39
0.34 0.35 0.35 0.35 0.36 0.37 0.38 0.38 0.39 0.39 0.40 0.41 0.42 0.43 0.44 0.44 0.45 0.47 0.49 0.48 0.49 0.49 0.49 0.48 0.46 0.46 0.47 0.49 0.46 0.44 0.45 0.48 0.50 0.50 0.50 0.50 0.50 0.49 0.48 0.48 0.48 0.49 0.48 0.47 0.47 0.48 0.49 0.48 0.46 0.44 0.42 0.40 0.39 0.40 0.42 0.48 0.49 0.49 0.51 0.50 0.47 0.48 0.48 0.45 0.42 0.40 0.40 0.40 0.38 0.39 0.40 0.37 0.38 0.41
0.35 0.35 0.35 0.36 0.37 0.38 0.38 0.40 0.40 0.40 0.41 0.42 0.42 0.42 0.43 0.44 0.44 0.45 0.46 0.46 0.47 0.47 0.47 0.47 0.47 0.48 0.47 0.49 0.49 0.48 0.46 0.47 0.46 0.46 0.46 0.46 0.47 0.47 0.48 0.47 0.46 0.46 0.46 0.44 0.46 0.48 0.50 0.50 0.49 0.48 0.47 0.45 0.43 0.45 0.46 0.44 0.44 0.46 0.48 0.50 0.51 0.48 0.46 0.44 0.41 0.40 0.39 0.37 0.38 0.40 0.40 0.41 0.43 0.43
0.37 0.38 0.38 0.39 0.40 0.41 0.41 0.41 0.41 0.40 0.40 0.40 0.40 0.41 0.41 0.41 0.42 0.44 0.46 0.47 0.47 0.47 0.47 0.47 0.48 0.49 0.50 0.50 0.48 0.48 0.49 0.48 0.48 0.48 0.47 0.47 0.46 0.47 0.47 0.46 0.44 0.43 0.42 0.41 0.43 0.46 0.49 0.49 0.51 0.50 0.49 0.48 0.50 0.50 0.51 0.49 0.47 0.47 0.46 0.48 0.49 0.47 0.45 0.46 0.43 0.42 0.39 0.40 0.38 0.37 0.36 0.37 0.37 0.41
0.37 0.38 0.39 0.40 0.40 0.41 0.40 0.40 0.39 0.39 0.40 0.41 0.42 0.43 0.43 0.43 0.44 0.45 0.46 0.47 0.48 0.48 0.48 0.48 0.49 0.50 0.50 0.50 0.49 0.48 0.47 0.48 0.48 0.48 0.48 0.47 0.46 0.46 0.46 0.45 0.43 0.41 0.38 0.38 0.41 0.45 0.48 0.54 0.54 0.55 0.53 0.52 0.52 0.53 0.48 0.42 0.38 0.39 0.42 0.45 0.48 0.47 0.46 0.45 0.43 0.41 0.38 0.39 0.38 0.37 0.35 0.34 0.35 0.36
0.37 0.37 0.38 0.39 0.38 0.39 0.39 0.39 0.39 0.40 0.41 0.42 0.42 0.42 0.42 0.43 0.43 0.43 0.44 0.45 0.46 0.47 0.47 0.46 0.47 0.48 0.49 0.49 0.49 0.48 0.47 0.46 0.47 0.47 0.47 0.46 0.45 0.44 0.43 0.42 0.40 0.39 0.40 0.41 0.44 0.46 0.53 0.56 0.54 0.52 0.51 0.50 0.47 0.43 0.39 0.39 0.39 0.40 0.42 0.45 0.46 0.47 0.47 0.45 0.43 0.41 0.40 0.39 0.36 0.33 0.35 0.36 0.37 0.34
0.37 0.37 0.37 0.38 0.39 0.39 0.40 0.40 0.40 0.41 0.41 0.42 0.42 0.43 0.43 0.43 0.43 0.43 0.44 0.44 0.45 0.45 0.45 0.46 0.46 0.46 0.46 0.47 0.47 0.47 0.46 0.44 0.44 0.44 0.44 0.43 0.41 0.39 0.38 0.39 0.40 0.42 0.44 0.46 0.49 0.50 0.51 0.52 0.53 0.52 0.50 0.48 0.45 0.44 0.41 0.42 0.43 0.42 0.42 0.41 0.42 0.44 0.45 0.44 0.41 0.40 0.40 0.41 0.40 0.39 0.37 0.35 0.31 0.31
0.38 0.38 0.38 0.39 0.39 0.40 0.41 0.41 0.41 0.42 0.42 0.42 0.43 0.43 0.43 0.43 0.43 0.44 0.44 0.44 0.45 0.45 0.46 0.47 0.48 0.48 0.48 0.47 0.46 0.46 0.45 0.44 0.44 0.43 0.41 0.40 0.40 0.40 0.40 0.41 0.43 0.44 0.45 0.46 0.48 0.49 0.49 0.50 0.51 0.51 0.47 0.44 0.45 0.43 0.41 0.41 0.40 0.40 0.39 0.39 0.41 0.41 0.40 0.42 0.42 0.42 0.43 0.42 0.42 0.42 0.42 0.41 0.40 0.39
0.39 0.39 0.39 0.40 0.41 0.42 0.42 0.42 0.43 0.43 0.43 0.43 0.43 0.43 0.43 0.44 0.44 0.45 0.46 0.46 0.46 0.47 0.47 0.48 0.48 0.48 0.49 0.49 0.47 0.44 0.44 0.45 0.44 0.43 0.43 0.43 0.43 0.43 0.43 0.43 0.43 0.44 0.46 0.48 0.47 0.47 0.48 0.48 0.48 0.47 0.45 0.44 0.44 0.42 0.41 0.40 0.39 0.39 0.39 0.38 0.37 0.38 0.38 0.39 0.39 0.39 0.39 0.40 0.43 0.43 0.43 0.42 0.41 0.40
Wind_Speed
9 10 10 10 9 9 9 9 9 9 9 10 9 8 8 7 6 6 6 6 6 6 7 6 5 5 5 5 5 5 4 4 4 4 4 5 5 5 5 5 5 5 5 6 6 6 7 7 7 8 8 8 9 9 9 9 9 10 10 10 10 10 10 10 10 10 10 10 11 11 11 11 11 12
9 10 10 10 10 9 9 9 9 9 9 10 9 8 8 8 7 7 6 6 7 7 7 7 6 6 6 6 6 6 5 5 5 5 5 6 6 6 6 6 6 7 7 7 7 7 8 8 8 8 9 9 9 10 10 10 10 10 10 10 10 10 10 10 10 10 11 11 11 11 12 12 12 13
10 10 10 10 10 10 10 9 9 9 10 10 10 9 9 8 8 8 7 7 7 8 8 7 7 7 7 7 6 6 6 6 6 6 7 7 7 7 8 8 8 8 8 8 8 8 8 9 9 9 10 10 10 10 10 10 11 11 11 11 11 11 11 11 11 11 11 12 12 12 13 13 14 14
9 10 10 10 10 10 10 10 10 10 10 10 11 10 9 9 10 10 9 7 7 8 8 8 7 8 8 7 7 7 7 7 8 8 8 8 8 9 10 10 10 10 10 10 10 10 10 10 10 10 11 11 11 11 11 11 11 12 12 12 12 12 12 13 13 13 13 13 14 14 15 15 16 16
9 10 10 11 11 11 11 11 10 10 11 11 11 11 10 10 11 11 9 8 8 9 8 8 8 8 8 8 8 8 8 8 8 9 9 9 10 11 11 11 12 11 11 11 11 11 11 11 11 12 12 13 13 13 13 13 13 13 13 13 13 13 14 14 14 15 15 15 16 17 17 17 18 18
9 9 10 10 11 11 11 11 11 11 12 11 11 11 11 10 11 11 9 8 8 9 9 9 9 9 9 9 9 9 9 9 9 10 10 11 12 12 12 12 13 13 13 13 13 13 13 13 13 13 14 14 14 14 14 14 14 14 14 14 14 15 15 16 16 17 17 18 18 19 19 20 20 21
10 10 10 10 11 11 11 12 12 12 12 12 12 12 11 10 11 12 10 9 9 10 10 10 10 10 10 10 10 10 11 10 11 11 12 12 13 13 13 14 14 15 15 15 15 15 15 15 15 15 15 15 15 15 15 15 15 15 15 15 15 16 16 17 18 18 19 20 20 21 21 22 22 22
10 10 10 11 11 12 12 12 13 13 13 13 12 12 11 10 11 12 10 10 10 11 11 11 11 11 11 12 12 12 12 12 12 12 13 13 14 14 14 15 15 16 16 16 17 17 17 17 16 16 16 16 16 16 16 16 16 16 16 16 17 17 18 18 19 20 20 21 22 22 22 22 22 23
10 11 11 11 12 12 12 13 13 13 13 13 13 13 12 11 11 12 11 11 11 11 12 12 12 12 12 12 13 12 12 13 13 14 14 15 15 16 16 16 16 17 17 18 18 18 18 18 18 18 17 17 17 17 17 17 17 17 17 18 18 19 19 20 20 21 22 23 23 23 23 23 23 24
10 11 11 11 12 12 12 12 13 13 13 13 13 13 13 11 11 12 13 13 12 12 12 13 13 13 13 13 13 13 14 14 14 15 15 16 17 17 17 17 18 19 19 19 19 19 19 19 19 19 18 18 18 18 18 19 19 19 19 19 19 20 20 21 22 23 23 24 24 24 24 24 24 24
10 10 11 12 12 12 12 12 12 13 13 13 13 13 14 13 12 12 14 14 13 13 13 13 14 14 14 14 14 15 15 15 16 16 17 18 18 19 19 19 19 20 20 20 20 20 20 20 20 20 20 20 20 20 20 20 20 20 20 21 21 22 22 23 24 24 24 25 25 25 25 25 25 25
10 10 11 12 12 11 12 12 13 13 13 13 14 14 14 14 13 13 14 14 15 15 15 15 15 15 16 16 16 17 17 17 18 18 18 19 19 20 20 20 20 20 20 20 20 20 21 21 21 21 22 22 22 22 22 22 22 22 22 23 23 24 24 25 25 25 25 25 25 25 26 26 27 27
11 11 10 11 11 11 11 11 12 13 13 13 14 14 15 15 14 14 15 16 16 16 16 16 16 17 17 18 18 18 19 19 19 19 20 20 21 21 21 21 21 21 21 21 21 21 22 22 22 23 23 23 24 24 24 24 24 25 25 25 25 25 26 26 26 26 26 26 26 26 27 28 28 29
12 12 11 11 11 11 11 11 12 13 13 14 14 14 15 16 16 16 17 17 17 17 17 18 18 19 19 20 20 20 20 20 20 21 21 22 22 22 22 22 22 22 22 22 23 23 23 23 23 24 25 25 25 26 26 26 26 26 26 26 27 27 27 27 27 28 28 28 28 28 28 29 30 31
13 13 12 12 12 12 12 12 13 13 14 15 15 15 16 16 17 17 18 18 18 18 19 19 19 20 21 21 22 22 22 22 22 22 23 23 23 23 23 24 23 23 23 24 24 24 24 24 25 26 26 26 26 27 27 27 27 28 28 28 28 29 29 29 29 29 30 30 30 30 30 31 32 33
14 13 13 12 12 12 12 13 14 14 15 15 16 17 17 18 18 18 19 19 19 19 20 20 21 21 22 23 23 24 24 24 24 24 24 25 25 25 25 25 25 25 25 25 26 26 26 26 27 27 27 27 27 27 27 28 29 29 29 30 30 31 31 31 31 31 31 32 32 32 33 33 34 35
13 14 14 14 14 14 14 15 15 15 16 17 18 19 19 20 21 21 21 21 21 21 21 22 23 23 23 24 25 25 26 26 26 26 26 26 27 27 28 28 28 28 27 28 28 29 29 28 28 29 29 29 29 29 29 29 30 31 31 31 32 32 33 33 33 33 33 33 34 34 35 36 37 37
14 14 14 15 15 15 16 17 17 17 17 18 19 20 21 22 23 23 24 24 24 24 25 25 25 25 26 26 27 27 28 28 28 29 29 29 29 30 30 30 30 30 29 30 31 31 31 30 30 31 31 31 31 31 31 31 32 33 33 33 34 34 34 34 34 34 35 35 36 36 37 38 38 38
15 16 16 16 16 16 17 17 18 18 19 19 20 21 22 23 24 25 26 26 27 27 28 29 29 29 29 29 29 29 30 30 30 31 31 31 31 32 32 31 31 31 32 32 32 33 32 32 32 33 33 33 33 34 34 34 34 35 35 35 35 36 36 36 36 36 36 37 37 38 39 39 39 39
16 17 17 18 18 18 18 18 19 20 21 22 22 23 24 25 26 26 27 28 29 30 31 31 32 32 32 32 32 32 32 32 32 32 32 32 33 33 33 33 33 33 33 34 34 35 35 34 34 35 35 35 35 35 35 36 36 36 36 36 37 37 37 37 37 38 38 38 38 39 39 39 39 39
18 18 19 19 19 20 20 20 21 22 23 24 25 26 26 27 28 28 29 30 31 33 34 34 34 34 35 35 35 35 35 35 34 34 34 34 34 34 35 35 35 35 35 35 35 36 36 36 36 37 36 36 36 36 37 38 37 37 37 38 38 38 38 38 38 38 38 38 39 39 39 39 38 38
19 20 20 21 21 21 22 22 23 24 25 26 27 28 29 30 30 31 31 31 32 33 34 35 36 37 37 37 37 37 38 38 37 38 38 37 37 37 37 37 37 37 37 37 37 37 37 38 38 38 37 37 38 38 38 39 39 38 38 39 39 39 39 39 39 39 38 38 38 38 38 38 37 37
20 21 21 22 23 23 24 25 25 26 28 29 30 30 31 32 33 33 34 35 35 35 36 37 38 38 38 39 40 40 41 41 41 41 41 40 40 40 40 40 40 40 39 39 38 38 39 39 38 38 38 37 38 38 38 38 38 38 38 39 39 39 39 39 39 39 38 38 38 37 37 36 36 36
22 23 23 23 24 25 26 27 27 28 29 31 32 33 33 34 35 35 36 37 37 38 39 40 40 40 40 41 42 42 43 43 43 43 43 43 43 43 43 42 42 42 40 39 40 40 40 40 39 39 38 38 38 37 37 37 38 38 39 39 39 39 39 39 39 38 38 38 37 37 36 35 35 35
24 24 24 25 26 27 28 29 30 31 32 33 34 35 36 37 37 38 39 39 40 40 41 41 41 42 43 43 43 43 44 44 44 45 45 45 45 45 44 44 44 43 42 42 42 42 41 40 39 39 39 39 39 38 39 39 39 39 40 39 38 38 38 38 37 37 37 37 36 36 35 34 34 34
25 26 26 27 28 30 32 33 34 35 36 36 37 38 39 40 40 41 42 42 43 43 43 43 44 44 45 45 44 44 45 45 46 46 45 46 46 45 45 45 45 45 45 44 43 42 41 41 40 40 40 40 40 40 40 40 40 40 39 38 37 37 36 36 36 36 36 35 35 35 34 34 33 32
29 29 30 32 33 34 35 37 37 38 39 39 40 41 42 42 43 44 44 45 45 45 46 46 46 46 46 46 46 46 46 45 46 46 45 46 46 46 46 46 46 46 45 44 43 42 42 41 41 41 41 41 41 41 40 40 40 39 38 37 36 36 36 36 36 36 35 34 34 34 34 34 33 31
31 33 34 35 36 38 39 39 40 41 41 41 42 42 43 44 44 45 45 45 46 46 47 47 48 48 48 49 49 48 47 47 46 46 45 45 45 45 45 45 45 44 44 43 43 42 42 42 42 41 41 41 41 40 40 39 38 37 37 36 36 36 36 36 36 35 34 34 34 33 33 32 31 30
33 35 36 37 38 39 39 40 40 41 41 41 42 42 43 44 44 45 45 46 46 47 47 48 48 49 49 49 49 49 49 47 46 46 45 45 45 45 44 44 44 44 44 43 43 43 43 43 43 42 41 41 41 40 39 39 38 37 37 37 36 36 36 36 36 35 34 33 33 33 32 31 31 30
34 35 36 37 38 38 39 39 39 40 40 41 41 42 42 43 43 44 45 45 46 47 48 48 48 49 48 48 48 49 49 48 47 47 46 46 45 45 44 44 44 44 43 43 43 43 43 42 42 41 41 41 40 40 39 39 38 37 37 37 36 35 35 35 35 34 34 33 32 32 32 31 30 30
34 35 36 37 37 38 38 39 39 40 40 40 41 41 41 42 43 43 44 44 45 46 47 48 48 48 48 47 47 47 47 47 46 46 46 46 46 45 45 44 44 43 43 43 42 41 41 41 40 40 40 40 40 39 39 38 38 37 36 36 35 35 34 34 34 33 33 32 31 31 31 31 29 28
34 35 36 36 37 37 37 38 38 39 39 39 40 40 41 42 43 43 44 44 45 45 46 46 46 46 46 46 46 46 45 45 45 45 45 45 45 45 45 44 44 43 42 42 41 40 40 40 40 40 39 39 39 38 37 36 36 36 35 34 34 34 33 33 32 32 31 30 29 29 29 28 27 25
35 35 36 36 36 36 37 37 37 38 38 39 39 40 41 42 42 43 43 44 44 44 44 44 45 45 44 44 44 45 45 44 44 44 44 44 44 44 43 43 43 42 42 41 41 40 40 40 40 39 39 38 37 36 35 34 33 32 31 31 32 32 31 30 29 28 27 27 26 26 25 25 23 22
35 35 35 35 35 36 36 37 37 38 38 39 39 40 40 41 42 42 42 42 42 43 43 43 43 43 43 43 43 43 44 43 43 42 41 40 40 39 39 39 39 39 39 39 39 39 39 38 38 37 36 35 34 33 32 31 30 29 28 28 29 28 28 27 25 24 24 23 23 22 21 21 20 19
34 34 34 35 35 36 36 37 37 38 38 39 39 39 40 40 40 41 41 41 41 41 41 41 41 41 41 41 41 41 41 40 39 38 37 37 36 36 35 35 35 35 35 35 35 35 34 34 32 31 31 30 29 29 28 27 26 25 25 25 24 24 24 23 21 20 20 20 19 19 19 19 19 19
33 33 34 34 35 36 36 37 37 37 38 38 38 38 38 38 38 39 39 39 39 39 39 38 38 38 38 38 38 38 37 37 36 36 35 35 34 33 32 32 31 31 31 30 30 29 29 28 28 27 27 26 26 25 24 23 23 23 22 22 22 21 20 19 18 18 18 17 17 17 17 17 18 18
32 32 33 33 34 35 35 35 36 36 36 36 37 37 37 37 37 37 37 37 36 36 35 35 35 35 36 36 36 36 36 35 35 34 34 33 31 30 29 28 27 26 26 25 25 25 25 25 25 25 24 24 23 22 21 21 22 22 22 21 20 18 17 16 16 16 16 16 16 16 16 16 16 17
31 31 32 32 33 33 33 34 34 34 34 34 34 34 34 34 34 34 34 34 34 33 33 33 33 33 34 34 34 35 34 34 34 33 32 31 29 28 26 25 24 23 23 23 23 23 23 23 22 22 21 21 20 20 19 19 20 21 20 19 17 16 15 14 14 15 15 15 15 15 15 15 16 16
30 31 31 31 31 31 31 32 32 31 32 32 32 32 32 32 32 32 32 32 31 31 31 32 33 33 33 33 33 33 32 32 31 31 30 29 27 26 24 23 21 21 21 20 20 21 20 20 19 19 18 18 18 18 18 18 18 18 17 17 16 15 14 13 14 14 14 14 14 14 14 15 16 16
29 29 29 30 30 29 29 29 29 29 29 29 29 30 30 30 30 30 31 31 31 31 31 31 32 32 32 32 31 30 29 28 28 28 27 26 24 23 22 21 20 19 19 19 19 19 18 17 17 16 16 16 17 17 17 17 17 16 15 15 15 14 13 13 13 13 13 12 13 14 15 15 16 16
28 28 28 28 27 27 27 27 27 27 27 27 27 27 28 28 28 28 29 29 30 30 30 30 30 29 29 28 27 27 26 26 26 25 25 24 23 21 20 19 19 19 19 18 18 17 16 16 16 16 16 16 16 16 17 16 15 14 14 13 13 13 12 12 12 12 12 12 13 14 15 16 16 16
26 25 25 25 25 25 25 25 25 25 25 25 25 25 25 25 25 25 25 26 26 26 26 26 25 24 24 24 24 24 24 24 23 23 23 22 21 20 19 18 18 18 17 17 16 16 16 16 16 16 17 16 15 15 14 13 12 12 12 12 12 12 11 11 11 11 11 11 12 13 14 15 15 16
24 23 23 23 23 23 23 23 23 22 22 22 23 23 23 23 22 22 22 22 22 22 21 21 21 21 20 20 20 19 19 18 19 19 19 19 19 18 18 17 17 16 16 15 15 15 15 15 15 15 15 14 13 13 12 12 11 12 11 11 11 11 10 9 9 9 10 11 11 12 14 15 15 16
22 22 22 22 22 22 21 21 21 21 21 21 21 21 21 21 21 20 20 20 19 18 18 18 18 17 16 15 14 13 13 13 14 14 15 15 16 16 16 15 15 14 14 14 14 13 13 14 13 13 12 12 11 11 11 11 11 11 10 10 10 10 9 9 9 9 10 11 12 13 14 15 15 16
21 21 21 20 20 20 20 20 19 19 20 20 20 20 20 20 19 19 18 17 16 16 16 16 15 14 13 12 10 9 9 10 10 11 12 13 14 14 14 13 13 12 12 12 12 12 12 12 11 11 11 10 11 11 11 11 10 9 9 9 9 9 9 8 9 9 10 11 12 13 14 15 16 16
Wind_Direction
238 238 238 238 239 237 234 232 227 226 226 224 225 228 228 231 235 235 238 241 240 240 244 248 250 249 252 260 264 264 261 252 250 255 256 256 259 259 261 267 272 278 285 291 295 299 301 304 307 308 307 307 306 306 307 307 308 310 310 311 311 311 311 312 313 313 314 315 316 315 315 314 314 313
238 239 238 237 236 234 233 232 228 226 225 222 224 231 233 237 241 239 241 246 246 246 248 251 250 248 254 262 263 261 256 248 249 255 257 258 259 259 262 266 270 274 278 283 288 292 295 298 301 303 303 303 304 305 305 306 307 309 309 309 309 309 310 310 311 311 311 313 314 314 313 313 312 311
239 238 237 234 232 231 230 232 230 227 224 223 228 235 237 241 244 243 247 251 249 249 251 252 250 250 256 260 258 258 256 253 255 260 262 261 260 262 267 269 271 274 277 281 285 287 290 293 296 298 300 301 303 304 305 305 305 306 306 307 307 307 307 307 307 308 308 308 309 309 309 308 308 307
239 237 235 231 230 229 229 230 229 228 228 229 231 233 238 246 247 248 253 253 250 253 255 253 252 252 254 255 253 254 256 257 261 265 265 263 264 268 271 270 271 275 277 281 283 285 288 290 292 295 297 300 302 303 304 303 302 303 303 304 305 305 305 305 305 305 304 304 304 305 305 305 304 304
239 238 236 232 229 229 229 228 228 230 231 233 234 234 241 249 249 251 255 251 249 254 256 256 254 252 253 254 252 254 259 261 263 266 266 266 269 272 274 272 272 274 277 280 282 284 287 289 291 293 295 298 300 301 302 301 300 300 300 301 302 303 304 304 303 303 302 302 302 302 302 302 302 302
239 239 237 233 231 231 230 230 231 231 230 234 236 237 245 249 248 253 254 248 248 251 253 256 255 252 254 254 253 257 262 265 265 265 266 270 273 274 274 275 274 274 276 278 281 283 285 287 288 290 292 294 296 298 299 299 298 298 298 298 298 299 300 301 301 301 301 301 300 300 301 301 301 301
238 239 237 235 234 232 232 233 236 234 232 236 236 239 248 248 247 255 254 246 249 250 251 254 253 252 255 256 256 257 261 266 268 267 267 271 276 275 275 277 277 275 276 278 280 282 283 284 285 287 289 291 293 294 296 297 297 297 297 297 297 297 298 298 299 299 299 299 299 299 299 299 300 300
238 238 237 236 234 233 234 235 237 237 235 237 238 240 248 247 247 256 254 246 250 252 252 254 254 252 254 258 258 256 258 265 269 270 269 271 275 277 277 279 279 276 276 278 279 280 281 282 283 284 286 288 290 291 293 294 295 295 296 297 297 297 298 298 299 299 299 299 298 298 298 299 299 300
239 238 238 239 236 234 236 236 237 238 236 237 240 241 247 248 249 255 256 252 252 252 253 256 257 254 254 258 260 258 259 265 270 273 274 274 276 277 278 279 279 277 278 279 279 280 280 280 281 282 284 285 287 288 289 290 292 293 294 295 296 298 299 299 299 299 299 298 298 297 298 298 299 300
241 240 240 241 239 238 239 237 237 238 237 240 242 244 248 250 250 253 257 257 256 256 255 257 258 257 256 258 262 263 264 267 271 275 277 278 279 279 278 278 278 279 279 279 279 279 279 279 280 281 282 283 284 285 286 287 288 290 291 293 295 296 298 298 299 299 299 298 296 296 296 297 298 299
245 244 243 244 244 244 241 238 237 238 239 243 246 247 251 253 251 252 256 257 258 259 260 259 259 259 258 259 263 265 266 269 272 276 277 279 279 280 278 277 277 279 280 279 278 278 278 278 279 279 280 281 282 283 284 284 285 287 289 291 293 295 297 298 298 298 298 298 296 294 294 295 297 299
248 248 246 247 249 248 245 241 240 239 241 246 248 249 253 256 254 252 255 259 259 260 262 263 263 262 260 261 263 266 267 269 272 276 278 279 281 280 278 276 276 278 279 279 279 278 277 278 279 279 279 279 280 282 283 283 284 285 287 290 292 294 296 297 297 297 298 298 297 294 294 295 297 298
249 249 249 250 250 249 248 246 244 244 245 248 251 252 254 257 259 257 258 261 261 261 262 264 265 264 263 262 263 266 268 270 273 277 278 279 281 281 279 278 277 276 277 279 279 279 278 278 279 280 280 279 280 281 283 283 284 285 286 289 291 293 295 296 296 296 297 297 296 295 294 295 296 298
249 250 250 251 250 249 249 247 247 250 251 251 254 256 256 257 260 261 261 262 263 262 262 263 264 264 264 264 264 266 268 271 274 278 278 278 279 279 279 279 278 275 275 277 279 279 278 279 281 282 281 280 280 281 283 284 284 286 287 289 291 292 293 294 295 295 295 295 295 294 294 295 296 297
248 248 249 250 249 250 250 250 252 255 256 255 256 258 259 260 262 263 263 264 265 264 264 264 264 265 265 266 267 268 270 272 274 277 278 278 278 278 278 279 279 277 274 276 279 279 278 278 282 283 282 280 280 281 282 283 284 286 287 289 291 292 292 293 293 293 294 294 293 293 293 294 296 297
246 245 248 249 252 254 254 254 256 257 258 260 260 261 263 264 265 265 264 265 266 267 266 266 266 266 267 268 268 270 271 273 274 276 277 277 278 278 277 278 279 278 275 275 278 280 279 278 281 283 283 281 280 281 281 282 283 285 286 288 290 291 291 291 291 291 292 293 293 292 292 294 295 297
249 249 251 253 255 258 259 259 260 261 262 263 264 264 265 266 266 267 266 266 267 268 269 269 268 268 270 270 270 271 273 274 275 277 278 277 277 278 277 277 278 278 275 275 278 280 280 279 279 282 283 282 282 282 282 282 283 284 286 287 289 290 290 291 290 290 291 292 293 293 293 293 295 296
254 255 257 258 259 261 262 262 264 265 267 268 268 268 268 268 268 268 268 268 267 268 268 269 269 270 271 272 272 273 275 276 276 277 278 278 277 278 278 278 278 277 275 276 277 279 280 279 278 280 282 281 281 282 282 282 283 284 286 287 288 289 290 290 290 290 291 291 292 293 293 294 294 295
256 259 261 262 264 264 265 267 268 269 270 272 272 272 271 271 271 270 270 269 268 268 268 268 269 270 271 272 273 274 275 276 276 276 277 277 278 278 278 277 277 276 275 276 277 279 279 278 278 280 281 280 280 281 281 282 283 284 286 287 288 289 290 290 290 290 291 291 292 293 293 293 293 294
260 261 262 263 265 266 267 270 272 272 272 273 273 273 273 273 272 272 271 270 269 269 270 270 270 270 271 271 272 274 274 275 276 276 276 276 277 277 277 276 277 278 277 276 277 279 280 278 278 280 281 280 280 280 281 281 282 284 285 286 287 288 289 289 290 290 291 291 292 292 292 292 292 292
264 264 264 265 266 267 268 271 273 274 274 274 273 273 273 273 273 273 273 272 271 270 270 270 270 270 271 271 272 273 273 274 275 275 275 275 276 276 277 277 277 278 278 276 277 278 279 279 279 279 280 280 279 280 281 281 282 283 284 285 286 287 288 288 289 290 291 291 292 292 292 292 292 292
266 266 268 268 267 268 270 272 275 276 276 275 274 274 273 273 273 273 273 274 274 272 271 272 272 272 271 271 272 272 273 273 274 274 274 275 275 276 277 277 278 279 278 276 276 277 279 279 278 279 280 280 279 279 281 282 282 283 283 284 285 286 287 288 289 290 290 291 291 292 292 292 292 292
268 268 270 270 270 270 272 274 276 277 277 276 275 275 274 273 273 273 273 274 274 273 273 274 275 274 272 272 273 273 273 273 273 273 274 274 275 276 276 277 277 278 278 276 275 277 279 279 278 279 279 280 280 280 281 282 283 283 284 285 285 286 287 288 289 289 290 290 292 293 293 293 293 293
269 269 269 270 271 273 274 276 277 277 277 277 276 275 275 274 274 275 275 274 274 274 274 274 274 274 274 275 275 274 273 273 272 273 273 273 274 274 275 276 276 276 277 276 275 277 279 279 278 278 278 280 282 281 281 282 283 283 284 285 285 285 286 287 288 288 289 290 291 292 293 293 293 293
269 270 270 270 272 274 276 277 277 277 278 278 277 276 275 275 275 276 275 275 275 275 275 274 274 274 275 276 276 275 274 274 273 273 273 272 273 273 274 275 275 276 277 276 275 276 277 277 276 277 277 279 281 281 282 283 284 284 284 285 286 286 286 287 288 288 288 289 290 290 291 292 292 292
270 271 272 274 275 276 277 278 279 279 279 278 277 277 276 276 277 276 276 276 275 275 275 275 275 275 275 275 275 275 275 275 274 273 273 273 272 273 273 274 274 275 277 276 275 275 276 275 275 276 277 279 280 281 282 283 284 285 284 284 285 285 285 286 287 289 289 289 289 289 290 291 292 292
273 273 274 276 278 279 279 280 280 280 280 279 278 277 277 277 277 276 276 276 276 275 275 275 275 275 275 275 276 276 276 275 274 274 274 273 272 272 273 274 274 275 275 274 273 273 274 275 275 276 277 279 280 281 281 282 283 283 282 283 284 285 285 285 287 289 289 289 289 288 289 290 290 290
275 276 278 279 280 281 281 281 281 281 280 279 279 279 278 278 278 277 277 277 276 276 276 275 275 275 275 275 275 275 275 274 274 274 273 273 273 272 273 274 274 274 274 273 272 273 274 275 276 276 277 278 279 280 280 281 282 282 282 283 284 284 285 285 287 288 289 289 289 288 288 289 289 289
279 280 281 282 282 283 283 282 282 282 281 280 280 279 279 279 278 278 278 277 277 277 276 276 276 275 275 275 274 274 273 273 273 272 272 272 273 273 273 274 274 275 274 273 272 272 273 275 275 276 277 277 278 279 280 281 281 282 283 283 283 284 285 285 286 287 288 288 288 287 287 288 288 288
282 283 283 284 284 284 284 284 283 283 282 282 281 281 280 280 280 279 279 278 278 277 277 277 277 276 276 275 275 274 273 272 271 271 271 272 272 272 273 274 275 275 274 273 273 273 273 274 275 276 276 277 278 278 279 280 280 281 282 282 283 284 284 284 284 286 287 287 286 285 285 286 286 287
284 285 285 285 285 285 285 284 284 284 284 284 283 283 282 281 281 281 280 279 279 278 277 277 277 277 276 276 275 275 274 272 271 271 271 271 271 271 272 274 274 274 273 273 273 273 273 273 274 275 276 277 277 277 278 279 279 280 281 281 281 282 283 284 284 285 285 285 284 284 285 285 285 286
286 286 286 286 286 286 285 285 285 285 285 285 284 284 283 282 282 282 281 280 280 280 279 278 277 277 276 275 275 274 274 273 272 271 271 270 270 271 271 272 272 272 272 272 271 272 273 274 274 275 276 277 277 277 278 278 278 279 279 279 279 280 282 283 284 284 283 283 283 284 285 285 283 284
287 287 287 287 287 287 287 287 286 286 286 286 285 285 284 284 283 283 283 282 282 281 280 279 279 278 277 275 274 274 274 273 272 272 272 271 271 271 271 271 271 271 271 270 270 272 273 274 275 276 276 277 277 276 275 276 276 277 277 277 278 279 281 281 281 281 281 282 284 285 286 285 283 281
288 288 288 288 288 288 288 288 288 288 288 288 287 287 286 286 285 285 284 284 283 282 282 281 280 279 277 276 275 274 274 274 273 272 272 272 271 271 271 271 270 270 270 270 270 271 273 274 275 275 276 275 275 273 272 272 273 274 275 276 278 280 280 280 279 279 280 282 283 283 284 284 283 282
288 288 289 289 289 289 290 290 289 289 289 289 289 288 288 288 287 286 285 284 284 284 283 282 281 280 278 277 276 275 275 274 272 271 271 271 271 270 269 269 269 269 270 270 271 272 273 273 273 274 274 273 272 270 268 268 271 272 274 276 278 279 279 278 277 278 279 280 280 281 282 283 283 285
289 290 290 290 291 291 291 291 291 291 290 290 290 289 289 288 288 288 287 286 285 285 285 285 283 281 280 279 277 275 274 273 271 270 270 269 268 267 267 267 268 269 270 271 272 272 271 271 271 271 270 268 268 267 265 265 268 271 274 276 277 277 276 276 276 276 277 278 278 279 281 283 285 288
291 292 292 292 293 293 293 293 293 292 292 292 291 291 290 290 289 289 289 289 288 287 287 287 286 284 282 280 278 276 274 272 270 269 267 266 265 265 265 267 268 269 270 271 271 271 271 270 268 268 266 265 264 264 263 264 267 271 273 273 273 273 273 271 273 275 277 277 279 280 283 287 289 291
293 294 294 294 294 294 294 294 294 294 293 293 292 292 292 292 291 291 291 291 291 290 289 288 287 286 284 281 279 277 274 272 269 266 264 263 262 262 263 265 267 269 270 271 272 272 270 267 265 265 264 264 263 263 263 265 268 271 270 268 267 268 268 267 269 274 276 277 280 283 286 290 292 293
294 295 295 295 295 295 295 295 295 295 295 294 294 294 293 293 292 292 291 291 291 291 290 289 288 287 284 282 279 277 274 270 266 263 260 259 258 257 259 262 266 268 270 271 272 271 267 264 262 261 261 261 262 264 266 268 268 268 265 262 260 262 265 266 268 273 275 278 283 287 290 294 295 296
295 296 296 296 296 296 296 296 296 297 296 296 296 296 295 295 294 293 292 291 291 290 290 290 289 288 285 282 279 277 274 269 264 260 256 255 254 254 256 260 263 266 268 268 268 266 263 260 257 256 257 260 262 263 266 267 266 263 260 258 256 258 261 264 267 270 275 282 288 292 294 297 300 301
296 296 296 296 297 297 297 298 298 298 298 299 299 299 298 298 298 297 295 294 293 292 291 291 290 289 287 285 281 277 273 268 262 257 253 251 251 252 254 257 261 263 265 265 263 260 258 256 252 252 257 263 265 265 264 263 261 258 255 253 252 254 258 262 264 269 276 285 293 298 300 301 303 305
297 297 297 298 298 298 299 299 299 300 301 301 302 302 302 302 302 302 301 301 299 297 295 294 294 293 291 288 283 277 272 266 260 254 251 249 249 250 252 255 258 260 262 263 261 258 256 254 253 254 258 261 263 261 257 256 258 257 252 248 248 251 255 260 265 273 281 287 295 303 308 309 307 306
297 298 298 298 298 299 299 300 301 302 303 305 306 306 306 306 307 307 308 308 306 304 302 302 301 300 298 293 286 278 272 265 259 253 249 246 245 246 248 251 254 257 259 260 259 257 254 254 255 257 256 256 254 252 251 254 259 258 251 244 242 246 252 260 269 279 288 293 298 305 311 313 310 308
298 298 298 299 299 299 301 302 303 305 306 308 309 309 309 310 310 311 312 312 311 311 311 310 308 307 306 302 294 283 273 265 257 250 245 241 240 241 243 247 251 255 256 256 255 254 253 254 254 254 252 249 246 247 250 254 256 253 246 240 239 242 251 262 274 285 293 297 298 302 308 312 312 310
299 299 299 299 300 301 303 304 306 307 308 309 309 310 311 311 311 312 312 313 314 314 315 315 313 312 311 309 301 287 272 261 252 244 238 235 235 237 240 245 250 253 254 254 253 251 251 251 249 246 244 242 242 246 250 250 248 246 243 241 241 246 256 267 278 288 295 297 297 301 307 312 314 314